This is the latest recevied weather packets stored in our database for station/object WS2Z. If no packets are shown the sender has not sent any weather packets the latest 10 day(s).
| Time | Temp. | Humidity | Pressure | Rain* | Wind** | Luminosity | Snow |
|---|---|---|---|---|---|---|---|
| 1777677504 | 27.78° C | 57% | 1011.1 hPa | 0 mm | - | 41 W/m² | - |
| 1777677202 | 28.33° C | 57% | 1010.9 hPa | 0 mm | - | 49 W/m² | - |
| 1777676900 | 28.33° C | 57% | 1011.1 hPa | 0 mm | - | 59 W/m² | - |
| 1777676599 | 28.89° C | 54% | 1011.1 hPa | 0 mm | - | 69 W/m² | - |
| 1777676296 | 28.89° C | 50% | 1011 hPa | 0 mm | - | 84 W/m² | - |
| 1777675993 | 28.89° C | 53% | 1010.9 hPa | 0 mm | - | 100 W/m² | - |
| 1777675689 | 28.89° C | 54% | 1010.9 hPa | 0 mm | - | 116 W/m² | - |
| 1777675387 | 28.89° C | 54% | 1010.9 hPa | 0 mm | - | 133 W/m² | - |
| 1777675083 | 28.89° C | 53% | 1010.7 hPa | 0 mm | - | 148 W/m² | - |
| 1777674779 | 28.89° C | 53% | 1010.8 hPa | 0 mm | - | 170 W/m² | - |
| 1777674476 | 29.44° C | 51% | 1010.8 hPa | 0 mm | - | 154 W/m² | - |
| 1777674174 | 28.89° C | 51% | 1010.5 hPa | 0 mm | - | 175 W/m² | - |
| 1777673870 | 28.89° C | 51% | 1010.5 hPa | 0 mm | - | 190 W/m² | - |
| 1777673566 | 28.89° C | 50% | 1010.5 hPa | 0 mm | - | 214 W/m² | - |
| 1777673264 | 28.89° C | 48% | 1010.7 hPa | 0 mm | - | 106 W/m² | - |
| 1777672961 | 28.89° C | 49% | 1010.7 hPa | 0 mm | - | 143 W/m² | - |
| 1777672659 | 29.44° C | 46% | 1010.8 hPa | 0 mm | - | 175 W/m² | - |
| 1777672359 | 30° C | 46% | 1010.7 hPa | 0 mm | - | 274 W/m² | - |
| 1777672054 | 29.44° C | 45% | 1010.6 hPa | 0 mm | - | 291 W/m² | - |
| 1777671751 | 29.44° C | 45% | 1010.9 hPa | 0 mm | - | 308 W/m² | - |
| 1777671447 | 29.44° C | 43% | 1010.9 hPa | 0 mm | - | 324 W/m² | - |
| 1777671143 | 29.44° C | 41% | 1010.9 hPa | 0 mm | - | 342 W/m² | - |
| 1777670839 | 29.44° C | 42% | 1010.8 hPa | 0 mm | - | 321 W/m² | - |
| 1777670536 | 30.56° C | 40% | 1011.1 hPa | 0 mm | - | 378 W/m² | - |
| 1777670233 | 30° C | 40% | 1011.2 hPa | 0 mm | - | 393 W/m² | - |
* Rain latest hour (hover to see other rain measurements)
** Current wind speed in m/s (hover to see current wind gust speed)